Weather History for Lincoln, NE

Change the Weather History Date:

Saturday, October 27, 2012

  Actual Average Record
Temperature  
Mean Temperature 33 °F 49 °F  
Max Temperature 46 °F 61 °F 89 °F (1922)
Min Temperature 20 °F 37 °F 8 °F (1997)
Degree Days  
Heating Degree Days 32 16  
Month to date heating degree days 395 310  
Since 1 July heating degree days 505 408  
Cooling Degree Days 0 0  
Month to date cooling degree days 0 12  
Year to date cooling degree days 1491 1170  
Moisture  
Dew Point 24 °F    
Average Humidity 71    
Maximum Humidity 92    
Minimum Humidity 49    
Precipitation  
Precipitation 0.00 in 0.05 in 0.97 in (1980)
Month to date precipitation 1.92 1.76  
Year to date precipitation 17.49 26.36  
Snow  
Snow 0.00 in 0.00 in - ()
Month to date snowfall 0.0 0.5  
Since 1 July snowfall 0.0 0.5  
Snow Depth 0.00 in    
Sea Level Pressure  
Sea Level Pressure 30.38 in    
Wind  
Wind Speed 4 mph (SSE)    
Max Wind Speed 12 mph    
Max Gust Speed 15 mph    
Visibility 10 miles    
Events      
T = Trace of Precipitation, MM = Missing Value Source: NWS Daily Summary

Daily Weather History Graph

Daily Weather History Graph

Search for Another Location

Airport:

Trip Planner

Search our weather history database for the weather conditions in past years. The results will help you decide how hot, cold, wet, or windy it might be!

Date:

Astronomy

Oct. 27, 2012 Rise Set
Actual Time 7:52 AM CDT 6:28 PM CDT
Civil Twilight 7:24 AM CDT 6:56 PM CDT
Nautical Twilight 6:51 AM CDT 7:29 PM CDT
Astronomical Twilight 6:20 AM CDT 8:00 PM CDT
Moon 5:15 PM CDT (10/27) 5:48 AM CDT (10/27)
Length of Visible Light 11h 32m
Length of Day
10h 36m
Waxing Gibbous, 96% of the Moon is Illuminated
Oct 27
Waxing Gibbous
Oct 29
Full
Nov 6
Last Quarter
Nov 13
New
Nov 20
First Quarter

Hourly Weather History & Observations

Time (CDT) Temp. Windchill Dew Point Humidity Pressure Visibility Wind Dir Wind Speed Gust Speed Precip Events Conditions
12:54 AM 21.0 °F - 18.0 °F 88% 30.48 in 10.0 mi Calm Calm - N/A   Clear
1:54 AM 25.0 °F - 21.0 °F 85% 30.45 in 10.0 mi Calm Calm - N/A   Clear
2:54 AM 25.0 °F - 21.0 °F 85% 30.44 in 10.0 mi Calm Calm - N/A   Clear
3:54 AM 24.1 °F - 21.0 °F 88% 30.43 in 10.0 mi Calm Calm - N/A   Clear
4:54 AM 19.9 °F - 17.1 °F 89% 30.42 in 10.0 mi Calm Calm - N/A   Clear
5:54 AM 24.1 °F - 19.9 °F 84% 30.43 in 10.0 mi Calm Calm - N/A   Clear
6:54 AM 21.9 °F - 19.0 °F 89% 30.47 in 10.0 mi Calm Calm - N/A   Clear
7:54 AM 21.9 °F - 19.0 °F 89% 30.47 in 9.0 mi Calm Calm - N/A   Partly Cloudy
8:54 AM 26.6 °F - 23.0 °F 86% 30.42 in 8.0 mi Calm Calm - N/A   Overcast
9:54 AM 28.9 °F - 25.0 °F 85% 30.45 in 8.0 mi Calm Calm - N/A   Partly Cloudy
10:54 AM 35.1 °F 30.1 °F 28.0 °F 76% 30.43 in 9.0 mi SSE 5.8 mph - N/A   Clear
11:54 AM 39.9 °F 35.8 °F 27.0 °F 60% 30.41 in 10.0 mi South 5.8 mph - N/A   Clear
12:54 PM 43.0 °F 39.5 °F 27.0 °F 53% 30.38 in 10.0 mi SSW 5.8 mph - N/A   Clear
1:54 PM 44.1 °F 42.5 °F 26.1 °F 49% 30.35 in 10.0 mi Variable 3.5 mph - N/A   Partly Cloudy
2:54 PM 44.1 °F 42.5 °F 26.1 °F 49% 30.32 in 10.0 mi SSE 3.5 mph - N/A   Partly Cloudy
3:54 PM 44.1 °F 40.1 °F 27.0 °F 51% 30.30 in 10.0 mi SSE 6.9 mph - N/A   Clear
4:54 PM 44.1 °F 39.0 °F 27.0 °F 51% 30.30 in 10.0 mi SSE 9.2 mph - N/A   Clear
5:54 PM 41.0 °F 36.4 °F 27.0 °F 57% 30.30 in 10.0 mi South 6.9 mph - N/A   Clear
6:54 PM 39.0 °F 34.8 °F 28.0 °F 65% 30.30 in 10.0 mi SSE 5.8 mph - N/A   Clear
7:54 PM 39.0 °F 36.8 °F 28.0 °F 65% 30.32 in 10.0 mi SSE 3.5 mph - N/A   Clear
8:54 PM 39.0 °F 35.7 °F 28.9 °F 67% 30.32 in 10.0 mi SSE 4.6 mph - N/A   Overcast
9:54 PM 39.9 °F 36.7 °F 28.9 °F 65% 30.33 in 10.0 mi SSE 4.6 mph - N/A   Overcast
10:54 PM 41.0 °F 36.4 °F 28.4 °F 61% 30.30 in 10.0 mi SSE 6.9 mph - N/A   Overcast
11:54 PM 41.0 °F 36.4 °F 27.0 °F 57% 30.32 in 10.0 mi SE 6.9 mph - N/A   Overcast